Terug naar catalogus

CHUBUSAT 2

ActiefAmateurradioVLEO
NORAD 41338·PAYLOAD·🇯🇵 Japan

Gelanceerd Feb 17, 2016 vanaf Tanegashima Space Center

Loading…

Volgende Passages (komende 24 uur)

TLE

VersSource: Space-Track

Epoch: Sep 14, 2026, 15:18 UTC

1 41338U 16012B   26257.63817060  .00004576  00000-0  19226-3 0  9997
2 41338  30.9966  93.9990 0008610 276.1789  83.7871 15.21665836582055

Volg CHUBUSAT 2 in realtime met AllMySat

Download on the App Store